Regional Weather Roundup
Issued by NWS

Home | Current Version | Previous Version | Text Only | Print | Product List | Glossary On
Versions: 1 2 3 4 5 6 7 8 9 10 11 12 13 14 15 16 17 18 19 20 21 22 23 24 25 26 27 28 29 30 31 32 33 34 35 36 37 38 39 40 41 42 43 44 45 46 47 48 49 50
000
ASUS43 KDTX 171901
RWRMI
MICHIGAN HOURLY REGIONAL WEATHER ROUNDUP
NATIONAL WEATHER SERVICE DETROIT/PONTIAC MI
300 PM EDT THU APR 17 2014

NOTE: "FAIR" INDICATES FEW OR NO CLOUDS BELOW 12,000 FEET WITH NO
SIGNIFICANT WEATHER AND/OR OBSTRUCTION TO VISIBILITY.

MIZ047>049-052>055-059>063-066>070-074>076-081>083-172000-
SOUTHEAST LOWER MICHIGAN

CITY           SKY/WX    TMP DP  RH WIND       PRES   REMARKS
ADRIAN         MOSUNNY   64  28  25 SW17G30   30.25F
ALMA           MOSUNNY   59  31  34 SE10G20   30.19F
ANN ARBOR      SUNNY     63  31  30 S15G22    30.25F
BAD AXE        SUNNY     55  31  40 S13G23    30.26F
CARO           MOSUNNY   61  28  29 S14       30.23S
DETROIT CITY   SUNNY     61  31  32 S14G21    30.28F
DETROIT        PTSUNNY   60  32  34 SE15      30.28F
FLINT          SUNNY     63  29  27 S16G23    30.23F
GROSSE ILE     SUNNY     55  30  38 SE9       30.27F
HILLSDALE      MOSUNNY   63  28  26 S12       30.23F
HOWELL         MOSUNNY   61  28  28 S18       30.23S

CITY           SKY/WX    TMP DP  RH WIND       PRES   REMARKS
JACKSON        MOSUNNY   63  29  27 SW18G28   30.23S
LAMBERTVILLE   SUNNY     64  30  27 S14G23    30.26F
LANSING        SUNNY     62  29  28 S15G23    30.21F
LAPEER         FAIR      58  32  37 S9G16     30.25S
MASON          MOSUNNY   61  31  32 S17       30.22F
MONROE         SUNNY     57  37  47 SE12      30.26F
MT. CLEMENS    PTSUNNY   55  34  45 SE16      30.27F
PONTIAC        PTSUNNY   59  29  31 S12       30.24F
PORT HOPE        N/A     44  34  67 E20       30.27F
PORT HURON     SUNNY     55  32  41 SE16      30.28F
TRI CITIES     MOSUNNY   60  31  33 S16       30.21F
TROY           SUNNY     59  29  31 S12       30.27F
SAGINAW HB     MOSUNNY   61  30  31 S10G25    30.21F
YPSILANTI      SUNNY     65  33  30 S15       30.27F
$$
MIZ043>046-050>051-056>058-064>065-071>073-077>080-172000-
SOUTHWEST LOWER MICHIGAN

CITY           SKY/WX    TMP DP  RH WIND       PRES   REMARKS
BATTLE CREEK   SUNNY     63  32  31 S20G28    30.21S
BENTON HARBOR  MOSUNNY   58  34  40 W15       30.20S
BIG RAPIDS     MOSUNNY   56  31  37 SW13G24   30.17S
COLDWATER      MOSUNNY   62  28  27 SW13      30.22S
FREMONT        FAIR      55  30  38 SW16G25   30.19R
HOLLAND        SUNNY     57  36  45 W20       30.21S
GRAND RAPIDS   PTSUNNY   63  34  33 SW17      30.18F
IONIA          MOCLDY    62  30  29 SW15      30.17F
KALAMAZOO      MOSUNNY   64  31  28 S13G25    30.20F
LUDINGTON      CLOUDY    51  33  50 SW17      30.18S
MARSHALL       MOSUNNY   62  30  29 S17G24    30.21F
MOUNT PLEASANT PTSUNNY   59  31  34 S13G23    30.18F
MUSKEGON       PTSUNNY   55  31  39 SW20      30.20F
SOUTH HAVEN    SUNNY     57  32  38 SW12G17   30.20S
$$
MIZ016>042-172000-
NORTHERN LOWER MICHIGAN

CITY           SKY/WX    TMP DP  RH WIND       PRES   REMARKS
ALPENA         CLOUDY    44  30  57 SE20G25   30.25F
BEAVER ISLAND  CLOUDY    41  29  62 NE3       30.20R
BELLAIRE       CLOUDY    49  25  38 S5        30.18S
CADILLAC       MOSUNNY   53  32  44 S15G29    30.15F
CHARLEVOIX     CLOUDY    48  24  39 S6        30.22R
FRANKFORT      CLOUDY    46  32  58 SW14G21   30.16F
GAYLORD        CLOUDY    49  25  39 SE13      30.16S
GRAYLING       PTSUNNY   50  25  38 SE13      30.18S
HARBOR SPRINGS CLOUDY    49  26  39 CALM      30.18R
HOUGHTON LAKE  PTSUNNY   53  28  38 S14       30.18S
MANISTEE       CLOUDY    54  28  37 SW12G21   30.17S
OSCODA         PTSUNNY   46  32  58 E9        30.26F
PELLSTON       CLOUDY    48  24  39 SE8       30.18F
ROGERS CITY    CLOUDY    44  29  54 SE14G23   30.25F
TRAVERSE CITY  CLOUDY    53  28  38 S10G17    30.15F
$$
MIZ007>008-015-172000-
EASTERN UPPER MICHIGAN

CITY           SKY/WX    TMP DP  RH WIND       PRES   REMARKS
KINROSS        CLOUDY    37  28  70 SE16G30   30.24S WCI  28
MACKINAC ISLAN CLOUDY    34  29  83 E18G35    30.21F WCI  23
NEWBERRY       CLOUDY    34  29  81 SE10      30.21R WCI  26
S. S. MARIE    CLOUDY    37  24  59 E18G30    30.24F WCI  27
MUNISING         N/A     36  31  82 S3        30.18F
$$
MIZ004>006-011>014-085-172000-
CENTRAL UPPER MICHIGAN

CITY           SKY/WX    TMP DP  RH WIND       PRES   REMARKS
MANISTIQUE     CLOUDY    35  31  84 E7        30.18F WCI  30
ESCANABA       CLOUDY    36  28  75 E6        30.17R WCI  31
MENOMINEE      MOSUNNY   46  34  61 W8        30.14R
SAWYER-GWINN   CLOUDY    32  30  93 S9        30.15S WCI  24
$$
MIZ001>003-009>011-084-172000-
WESTERN UPPER MICHIGAN

CITY           SKY/WX    TMP DP  RH WIND       PRES   REMARKS
IRON MOUNTAIN  CLOUDY    36  31  82 CALM      30.13S
HOUGHTON       CLOUDY    31  29  92 E8        30.15S FOG     WCI  23
COPPER HARBOR    N/A     34  30  85 S9G26     30.18S WCI  27
IRONWOOD       CLOUDY    32  28  86 W16       30.14R VSB 3/4 WCI  21
$$

ABBREVIATIONS USED IN REMARKS
   TC - TEMPERATURE IN CELSIUS
  WCI - WIND CHILL INDEX
   HX - HEAT INDEX
  VSB - VISIBILITY




USA.gov is the U.S. government's official web portal to all federal, state and local government web resources and services.